Location: T. Spence Memorial Observatory
(32.7356°N, 82.2098°W)
Time: 15:39:16
(UTC-04:00)

Daily predictions for brighter satellites

Satellite Brightness Start Highest point End
(mag) Time Altitude Azimuth Time Altitude Azimuth Time Altitude Azimuth
MINOTAUR R/B 4.4 20:24:06 10° N 20:26:49 55° ENE 20:29:31 10° SSE
Cosmos 2227 4.2 20:22:07 10° NNW 20:27:45 69° ENE 20:33:24 10° SSE
ALOS 2.7 20:24:20 10° S 20:28:57 69° W 20:33:37 10° NNW
Cosmos 1954 Rocket 4.1 20:23:46 10° N 20:29:04 64° ENE 20:34:19 10° SSE
Cosmos 1975 Rocket 3.2 20:24:44 10° N 20:29:11 83° W 20:33:35 10° S
USA 267 3.8 20:24:42 10° ESE 20:30:51 44° NE 20:37:00 10° NNW
NOSS 2-3 (D) 3.8 20:26:22 10° SSW 20:30:55 86° ESE 20:35:59 10° NNE
FENGYUN 3A 3.9 20:25:49 10° S 20:31:11 74° WSW 20:36:33 10° NNW
DELTA 2 R/B(2) 4.4 20:29:16 10° NW 20:31:47 35° NNE 20:33:20 10° E
Cosmos 1812 4.0 20:28:26 10° NNW 20:32:09 46° W 20:35:51 10° SSW
Cosmos 1553 Rocket 4.3 20:28:57 10° N 20:34:47 46° E 20:40:33 10° SSE
S3M 4.4 20:28:56 10° N 20:34:53 43° E 20:40:53 10° SSE
ASTRO E2 4.2 20:33:06 10° SSW 20:36:09 21° SSE 20:39:12 10° ESE
Resurs 01 Rocket 2.3 20:36:18 10° SE 20:40:22 36° ENE 20:44:27 10° N
Cosmos 2151 Rocket 3.5 20:36:40 10° S 20:41:01 69° E 20:45:23 10° NNE
Envisat 3.9 20:40:27 10° SE 20:44:47 29° ENE 20:49:09 10° NNE
Cosmos 1602 3.8 20:42:12 10° S 20:46:01 83° W 20:49:52 10° N
Abrixas 2.3 20:43:49 10° SSW 20:46:18 45° SE 20:48:49 10° ENE
DELTA 2 R/B (1) 3.8 20:41:03 10° WNW 20:46:36 66° SSW 20:51:49 12° SE
GENESIS II 4.2 20:43:30 10° NNW 20:47:24 70° ENE 20:51:15 10° SE
Cosmos 2263 Rocket 2.9 20:42:31 10° N 20:47:42 35° ENE 20:52:22 12° SE
Cosmos 2322 Rocket 2.7 20:44:43 10° SSW 20:50:23 68° WNW 20:56:04 10° NNE
Cosmos 1741 Rocket 4.5 20:45:41 10° N 20:50:40 43° ENE 20:55:34 10° SE
Lacrosse 5 2.5 20:46:38 10° SW 20:51:38 59° NW 20:56:39 10° NNE
Cosmos 1536 Rocket 3.7 20:49:20 10° N 20:53:33 50° E 20:57:46 10° SSE
Atlas Centaur 2 3.2 20:47:31 10° W 20:56:00 66° SSW 21:02:22 16° ESE
ATLAS 2AS CENTAUR R/B 3.0 20:49:16 10° SSW 20:56:48 89° ESE 21:04:54 10° NNE
SL-16 R/B 3.2 20:58:35 10° SW 21:04:04 51° WNW 21:09:35 10° N
Helios 1B rocket 3.6 21:04:47 10° NE 21:07:58 21° E 21:08:10 21° E
Centaur AC-116 4.0 21:04:03 10° WSW 21:11:11 30° S 21:12:36 22° SE
Meteor 1-11 Rocket 4.0 21:05:44 10° SSW 21:11:34 75° W 21:17:18 10° N
FALCON 9 R/B 3.9 21:08:05 10° SSE 21:19:39 - E 21:10:18 17° SE
Cosmos 1110 Rocket 3.9 21:08:30 10° S 21:13:35 63° ESE 21:18:41 10° NNE
GPS 2-05 Rocket1 2.7 21:12:40 10° WNW 21:16:06 81° SSW 21:17:20 36° ESE
Cosmos 2322 3.7 21:11:55 10° S 21:17:28 61° ESE 21:23:03 10° NNE
Delta 2 Rocket 3.6 21:16:00 10° W 21:19:49 61° N 21:22:33 21° ENE
Cosmos 2360 Rocket 2.1 21:16:02 10° SSW 21:21:40 85° ESE 21:27:18 10° NNE
SeaSat 1 2.3 21:19:19 10° NNE 21:24:16 76° ESE 21:29:10 10° SSW
Cosmos 1331 Rocket 3.9 21:19:32 10° S 21:24:40 71° ESE 21:29:52 10° NNE
OPS 6432 4.4 21:21:47 10° SSW 21:25:58 77° ESE 21:29:13 10° NNE
Meteor 1-23 Rocket 4.2 21:22:31 10° N 21:28:03 62° E 21:31:39 22° SSE
Okean 2 4.2 21:25:50 10° NNE 21:29:21 30° ENE 21:29:21 30° ENE
COSMOS 2428 3.1 21:25:16 10° S 21:30:35 40° ESE 21:35:54 10° NE
Cosmos 1850 Rocket 4.2 21:25:47 10° NNW 21:31:05 72° WSW 21:35:25 15° S
Resurs 1-3 4.4 21:31:26 10° S 21:35:41 51° W 21:39:59 10° NNW
Meteosat 1 Rocket2 3.8 21:31:53 10° WSW 21:36:29 56° S 21:38:59 34° ESE
Cosmos 220 Rocket 3.9 21:36:29 10° NNW 21:40:49 79° ENE 21:42:04 46° SSE
Meteor 1-5 Rocket 4.5 21:38:02 10° SSW 21:43:19 64° W 21:48:35 10° N
Cosmos 2333 Rocket 4.2 21:47:12 13° NE 21:47:12 13° NE 21:47:55 10° NE
Cosmos 883 Rocket 4.4 21:41:01 10° N 21:47:11 89° E 21:51:30 21° S
USA 186 3.8 21:45:50 13° SSW 21:48:16 28° W 21:51:13 10° NW
Cosmos 2333 4.2 21:43:29 10° S 21:48:59 55° ESE 21:54:29 10° NNE
Cosmos 1025 Rocket 2.8 21:46:01 10° N 21:50:17 70° E 21:50:37 66° ESE
Okean 1 Rocket 4.0 21:46:33 10° SSW 21:50:44 47° W 21:54:58 10° N
Cosmos 1607 4.0 21:44:56 10° NNW 21:51:25 83° WSW 21:54:25 34° SSE
Cosmos 1939 Rocket 3.0 21:51:36 44° SSW 21:52:42 67° W 21:56:36 10° NNW
Cosmos 1244 Rocket 4.3 21:53:51 28° S 21:57:09 70° E 22:03:15 10° N
USA 238 DEB 4.1 21:52:17 10° NNW 21:59:11 51° NE 22:01:04 41° E
USA 238 4.1 21:52:23 10° NNW 21:59:17 51° NE 22:01:09 41° E
Tiangong 1 3.0 21:56:38 10° WNW 21:58:00 26° WNW 21:58:00 26° WNW
Helios 1A 2.8 22:01:08 85° ESE 22:01:11 85° ENE 22:05:26 10° N
Cosmos 1818 3.6 22:00:21 10° SSW 22:05:46 81° WNW 22:11:14 10° NNE
ERS-1 Rocket 3.2 22:06:57 52° ENE 22:06:57 52° ENE 22:11:30 10° N
ATLAS 3B R/B 2.5 22:02:05 10° NNW 22:08:44 67° ENE 22:09:58 55° ESE
YAOGAN 6 3.5 22:10:09 45° WNW 22:10:09 45° WNW 22:13:01 10° NNW
Cosmos 1238 Rocket 3.9 22:03:18 10° N 22:09:45 57° E 22:10:05 56° E
ARGOS 3.8 22:12:31 41° NE 22:12:31 41° NE 22:16:52 10° N
USA 267 4.0 22:10:53 29° S 22:13:45 44° SW 22:19:57 10° NW
Cosmos 1066 Rocket 4.5 22:10:51 10° N 22:15:33 50° NE 22:15:33 50° NE
Okean 1-7 Rocket 4.0 22:12:10 10° NNW 22:16:37 59° W 22:16:59 57° WSW
Resurs 01 Rocket 4.3 22:14:14 10° SW 22:16:55 16° W 22:19:36 10° WNW
SPOT 5 4.2 22:31:51 29° NNE 22:31:51 29° NNE 22:34:21 10° N
Cosmos 2263 Rocket 4.0 22:26:47 10° NW 22:31:22 26° WSW 22:34:06 18° SW
Aureole 3 Rocket 3.8 22:24:15 10° N 22:31:40 80° ENE 22:31:40 80° ENE
MetOp-B 4.3 22:37:45 67° NNW 22:37:45 67° NNW 22:42:21 10° NNW
Cosmos 1844 Rocket 3.1 22:32:15 10° NNW 22:36:49 53° NNE 22:36:49 53° NNE
Cosmos 2278 Rocket 3.9 22:35:21 10° N 22:38:10 21° NE 22:38:10 21° NE
H-2A R/B 3.3 22:46:54 32° N 22:46:54 32° N 22:49:37 10° N
Atlas Centaur 2 3.7 22:38:06 10° W 22:45:00 34° SSW 22:45:00 34° SSW
Cosmos 2219 Rocket 2.7 22:50:02 55° NNW 22:50:02 55° NNW 22:54:39 10° NNE
Cosmos 1745 Rocket 4.1 22:50:54 68° NNW 22:50:54 68° NNW 22:56:14 10° N
CENTAUR R/B 4.4 22:49:43 10° N 22:55:53 24° NE 22:56:35 24° NE
NOSS 3-4 (A) 3.9 22:52:32 10° SW 22:58:43 60° WNW 23:05:02 10° NNE
NOSS 3-4 (C) 3.8 22:52:38 10° SW 22:58:49 60° WNW 23:05:09 10° NNE
Terra 4.2 23:04:46 15° NNE 23:04:46 15° NNE 23:05:43 10° N
Cosmos 2333 Rocket 3.8 23:29:06 31° NNW 23:29:06 31° NNW 23:32:44 10° N
Cosmos 2237 Rocket 4.2 23:42:11 22° N 23:42:11 22° N 23:44:14 10° N
